Terminal Aerodrome Forecast
Issued by NWS Denver/Boulder, CO

Home | Current Version | Previous Version | Text Only | Print | Product List | Glossary On
Versions: 1 2 3 4 5 6 7 8 9 10 11 12 13 14 15 16 17 18 19 20 21 22 23 24 25 26 27 28 29 30 31 32 33 34 35 36 37 38 39 40 41 42 43 44 45 46 47 48 49 50
000
FTUS45 KBOU 171734
TAFDEN
TAF
KDEN 171734Z 1718/1824 VRB04KT P6SM FEW070 SCT090 BKN120
     FM172200 05006KT P6SM VCSH SCT030 BKN060 OVC120
     FM180100 11005KT P6SM VCSH SCT020 BKN030
     FM180500 21006KT P6SM SCT050 BKN100
     FM181400 30005KT P6SM BKN120
     FM181900 02005KT P6SM BKN120=

USA.gov is the U.S. government's official web portal to all federal, state and local government web resources and services.